Location: Franzen
(48.6167°N, 15.3833°E)
Time: 09:31:32
(UTC+00:00)

Altair - Pass Details

Date: 03 August 2021
Orbit: 1501 x 1682 km, 47.2° (Epoch: 20 September)

Event Time Altitude Azimuth Distance (km) Brightness Sun altitude
Rises 22:38:28 0° 203° (SSW) 4,789 - -23.9°
Reaches altitude 10° 22:42:04 10° 193° (SSW) 3,779 - -23.9°
Exits shadow 22:49:41 31° 140° (SE) 2,474 8.1 -24.1°
Maximum altitude 22:49:58 31° 137° (SE) 2,471 8.1 -24.1°
Drops below altitude 10° 22:57:41 10° 80° (E) 3,686 9.6 -24.1°
Sets 23:01:07 0° 71° (ENE) 4,655 10.3 -24.1°
